[[{"header":{"parameterUnit":"m.s-1","parameterCategory":1,"la1":30.2992,"la2":30.254,"lo1":-89.0895,"lo2":-89.0443,"dy":0.0025,"dx":0.0025,"nx":19,"ny":19,"refTime":"2026-04-26T09:00:00:Z","depth":0,"parameterNumber":2,"parameterNumberName":"U-component_of_WINDS"},"data":[0,0,0,0.6558,0.656,0.6708,0.6709,0.6884,0.6886,0,0,0,0,0,0,0,0,0,0,0,0.6506,0.6507,0.6557,0.6561,0.6708,0.6709,0.6884,0.6886,0,0,0,0,0,0,0,0,0,0,0,0.6506,0.6507,0.6508,0.6561,0.6708,0.6709,0.6883,0.6777,0,0,0,0,0,0,0,0,0,0,0.6636,0.6581,0.6507,0.6508,0.6562,0.6708,0.6709,0.6772,0.6783,0.6812,0,0.6835,0,0.6863,0.6896,0.6897,0,0,0,0.6566,0.6571,0.6618,0.6508,0.6563,0.6707,0.6643,0.6778,0.6792,0.6827,0.6838,0.6845,0.6866,0.6897,0.6898,0.7044,0.7045,0,0,0.6558,0.6528,0.6609,0.6626,0.6603,0.6638,0.6648,0.6787,0.6796,0.6839,0.6849,0.6869,0.6899,0.69,0.7044,0.7044,0,0,0,0.6531,0.6522,0.6566,0.6619,0.6646,0.6642,0.6653,0.679,0.6807,0.6851,0.6871,0.69,0.6902,0.7043,0.7044,0.7035,0,0,0,0.6526,0.6507,0.6562,0.6546,0.6644,0.672,0.6653,0.6797,0.6814,0.687,0.69,0.6903,0.7043,0.7044,0.7034,0.7035,0,0,0,0.6499,0.6504,0.6523,0.6544,0.6606,0.6719,0.6744,0.6802,0.6826,0.6897,0.6904,0.7043,0.7044,0.7034,0.7034,0.7064,0,0,0,0.6461,0.6513,0.6522,0.6587,0.6605,0.6713,0.6743,0.6825,0.6885,0.69,0.7043,0.7044,0.7034,0.7034,0.7063,0.7082,0.7088,0,0,0.6509,0.6517,0.6558,0.6571,0.6669,0.6693,0.679,0.6873,0.6907,0.6996,0.7001,0.7035,0.7034,0.7064,0.7133,0.7137,0,0,0,0.6563,0.6592,0.6625,0.6681,0.6746,0.6802,0.6873,0.6904,0.6982,0.6947,0.7055,0.7056,0.7074,0.7085,0.7088,0.7106,0.7048,0.7048,0.7048,0.6587,0.6628,0.6698,0.6757,0.6811,0.6885,0.6933,0.6987,0.7013,0.7038,0.7064,0.7101,0.7112,0.7115,0.7132,0.7079,0.7079,0.7079,0.7079,0.6659,0.6705,0.674,0.6819,0.6863,0.693,0.7004,0.702,0.7088,0.7085,0.7103,0.7093,0.7118,0.7135,0.7079,0.7079,0.7079,0.7079,0.7079,0.6677,0.6707,0.6744,0.683,0.6892,0.6951,0.7015,0.7053,0.7089,0.7107,0.7138,0.7138,0.7142,0.712,0.712,0.712,0.712,0.712,0.712,0.668,0.6723,0.6773,0.6847,0.6888,0.6948,0.7023,0.7065,0.7121,0.7143,0.7143,0.7165,0.7114,0.7099,0.7122,0.7122,0.7122,0.7122,0.7121,0.6734,0.6728,0.6805,0.6846,0.6937,0.6995,0.7044,0.7125,0.7165,0.7196,0.7216,0.7172,0.7182,0.7179,0.7167,0.7207,0.7207,0.7207,0.7207,0.6747,0.6758,0.6844,0.6908,0.6975,0.7027,0.7111,0.7171,0.7232,0.726,0.726,0.7248,0.7244,0.7257,0.7252,0.7241,0.7299,0.7299,0.7299,0.6782,0.6801,0.6865,0.6925,0.6999,0.7062,0.7143,0.7214,0.7282,0.7304,0.7282,0.7278,0.7258,0.725,0.7268,0.7261,0.7241,0,0]},{"header":{"parameterUnit":"m.s-1","parameterCategory":1,"la1":30.2992,"la2":30.254,"lo1":-89.0895,"lo2":-89.0443,"dy":0.0025,"dx":0.0025,"nx":19,"ny":19,"refTime":"2026-04-26T09:00:00:Z","depth":0,"parameterNumber":3,"parameterNumberName":"V-component_of_WINDS"},"data":[0,0,0,2.8551,2.8548,2.8348,2.8347,2.8132,2.8131,0,0,0,0,0,0,0,0,0,0,0,2.8642,2.8641,2.8552,2.8548,2.8348,2.8347,2.8132,2.8131,0,0,0,0,0,0,0,0,0,0,0,2.8642,2.8642,2.8641,2.8547,2.8348,2.8347,2.8133,2.8267,0,0,0,0,0,0,0,0,0,0,2.8454,2.8569,2.8642,2.8641,2.8546,2.8349,2.8347,2.8273,2.8259,2.8242,0,2.8241,0,2.8184,2.812,2.8119,0,0,0,2.8522,2.8581,2.85,2.8641,2.8545,2.8349,2.8431,2.8265,2.8249,2.8224,2.8238,2.8229,2.818,2.8118,2.8118,2.812,2.8121,0,0,2.8533,2.8621,2.8512,2.8492,2.8532,2.8438,2.8425,2.8254,2.8273,2.8237,2.8223,2.8177,2.8117,2.8116,2.8119,2.8121,0,0,0,2.8582,2.863,2.8551,2.8502,2.8463,2.8433,2.8418,2.828,2.8248,2.822,2.8174,2.8116,2.8114,2.8118,2.812,2.8267,0,0,0,2.8587,2.8658,2.8558,2.8609,2.8468,2.8371,2.8449,2.826,2.8238,2.8175,2.8116,2.8113,2.8116,2.8119,2.826,2.8321,0,0,0,2.8644,2.8664,2.8647,2.8614,2.8532,2.8371,2.8328,2.8253,2.8211,2.8119,2.8112,2.8115,2.8118,2.8254,2.8311,2.8349,0,0,0,2.8727,2.8777,2.8651,2.8687,2.8535,2.8467,2.8328,2.8271,2.821,2.8115,2.8116,2.8119,2.8252,2.8304,2.8343,2.8398,2.8429,0,0,2.8838,2.8794,2.8808,2.8689,2.8667,2.849,2.8485,2.8342,2.8249,2.8167,2.8166,2.8262,2.831,2.8347,2.8573,2.8599,0,0,0,2.8872,2.8884,2.8859,2.8809,2.8705,2.862,2.847,2.8416,2.8343,2.8228,2.8283,2.8308,2.8327,2.8349,2.8371,2.838,2.8133,2.8133,2.8133,2.9154,2.9038,2.9054,2.8915,2.8866,2.8713,2.8661,2.8561,2.8454,2.8469,2.8444,2.8596,2.8626,2.8641,2.8653,2.8463,2.8464,2.8464,2.8465,2.9306,2.9304,2.9165,2.9131,2.9006,2.8973,2.8825,2.8751,2.8699,2.8605,2.8615,2.8524,2.8674,2.8677,2.8474,2.8473,2.8471,2.847,2.847,2.9478,2.9457,2.9396,2.9311,2.9257,2.911,2.9069,2.8954,2.8845,2.8855,2.8816,2.8813,2.8796,2.8845,2.8846,2.8846,2.8847,2.8847,2.8847,2.9682,2.9607,2.959,2.9486,2.9439,2.9361,2.9206,2.9153,2.9065,2.8985,2.8984,2.8875,2.8711,2.8673,2.8855,2.8854,2.8853,2.8852,2.8851,2.988,2.9818,2.9792,2.9745,2.9612,2.9566,2.9421,2.9324,2.9263,2.9246,2.9134,2.9032,2.8976,2.8957,2.8925,2.9161,2.9161,2.9161,2.9161,3.0026,2.9988,2.9936,2.9868,2.9788,2.9655,2.9624,2.9503,2.9366,2.9321,2.9269,2.9216,2.9203,2.9153,2.9131,2.9099,2.9374,2.9374,2.9374,3.0142,3.0091,3.009,2.9962,2.9849,2.9754,2.972,2.9643,2.9474,2.938,2.9282,2.9273,2.9185,2.9163,2.9068,2.9036,2.8974,0,0]}]]